Regional Weather Roundup
Issued by NWS Huntsville, AL

Home | Current Version | Previous Version | Text Only | Print | Product List | Glossary On
Versions: 1 2 3 4 5 6 7 8 9 10 11 12 13 14 15 16 17 18 19 20 21 22 23 24 25 26 27 28 29 30 31 32 33 34 35 36 37 38 39 40 41 42 43 44 45 46 47 48 49 50
000
ASUS44 KHUN 280810
RWRHUN

WEATHER ROUNDUP FOR THE TENNESSEE VALLEY
NATIONAL WEATHER SERVICE HUNTSVILLE AL
300 AM CDT TUE JUL 28 2015

ALZ001>004-280900-
NORTHWEST ALABAMA

CITY           SKY/WX    TMP DP  RH WIND       PRES   REMARKS
COURTLAND HCN    N/A     77 N/A N/A CALM        N/A
BANKHEAD NF      N/A     76  75  97 CALM        N/A
RUSSELLVILLE     N/A     73 N/A N/A MISG        N/A
SHOALS AIRPORT CLEAR     76  74  93 CALM      29.97F
SHOALS TVA RES   N/A     75 N/A N/A MISG        N/A
$$

ALZ005>007-016-280900-
NORTH CENTRAL ALABAMA

CITY           SKY/WX    TMP DP  RH WIND       PRES   REMARKS
CULLMAN AG STN   N/A     72 N/A N/A CALM        N/A
DECATUR AP     CLEAR     74  73  97 CALM      29.97S
HUNTSVILLE AP  CLEAR     78  73  84 CALM      29.96F
HUN NWS/UAH      N/A     79  72  80 N1          N/A
MERIDIANVILLE  PTCLDY    73  70  88 CALM      29.98S
REDSTONE ARSN  CLEAR     74  73  95 N2        29.96F
VINEMONT AP    FAIR      72  72  98 CALM      30.00F FOG
$$

ALZ008>010-280900-
NORTHEAST ALABAMA

CITY           SKY/WX    TMP DP  RH WIND       PRES   REMARKS
ALBERTVILLE    PTCLDY    73  73 100 CALM      29.98F
FORT PAYNE     PTCLDY    70  68  94 CALM      29.98S
SCOTTSBORO AP  PTCLDY    75  75 100 CALM      29.98S
SCOTTSBORO HCN   N/A     73 N/A N/A MISG        N/A
VALLEY HEAD      N/A     70 N/A N/A MISG        N/A
$$

TNZ076-096-097-280900-
SOUTHEASTERN MIDDLE TENNESSEE

CITY           SKY/WX    TMP DP  RH WIND       PRES   REMARKS
TULLAHOMA      CLEAR     73  72  94 CALM      30.01S
WINCHESTER     CLEAR     73  72  94 SW3       29.99F
$$

...SURROUNDING SITES...

CITY           SKY/WX    TMP DP  RH WIND       PRES   REMARKS
ATLANTA        PTCLDY    78  71  79 CALM      29.98F
ANNISTON       CLEAR     75  73  93 CALM      29.97F
BIRMINGHAM     CLEAR     74  73  97 CALM      29.99F
CHATTANOOGA    CLEAR     78  74  87 CALM      29.97F
DALTON         PTCLDY    73  73 100 CALM      29.97F
GADSDEN        CLEAR     73  68  83 CALM      29.96F
GOLDEN TRNGL   CLEAR     75  72  88 CALM      29.95S
HALEYVILLE     FAIR      74  74 100 CALM      30.01F FOG
JACKSON TN     CLEAR     77  74  90 CALM      29.95S FOG
MEMPHIS        CLEAR     81  75  82 S3        29.95S
NASHVILLE      MOCLDY    79  77  94 SE3       29.96F
ROME           PTCLDY    74  71  91 CALM      29.96F
SAVANNAH       CLEAR     75  32  20 CALM      29.96F
TUPELO         CLEAR     79  76  90 CALM      29.95F
TUSCALOOSA     CLEAR     77  75  93 CALM      29.96S
$$

...GULF COAST WEATHER...

CITY           SKY/WX    TMP DP  RH WIND       PRES   REMARKS
GULFPORT       CLEAR     77  74  90 NW3       29.96F
PASCAGOULA     CLEAR     74  74 100 CALM      29.95F FOG
MOBILE         MOCLDY    77  74  90 W3        29.97F
GULF SHORES    SUNNY     79  75  89 CALM      29.94F
PENSACOLA      CLEAR     79  74  84 NW3       29.93F
DESTIN         CLEAR     82  74  76 NW5       29.93F
PANAMA CITY    CLEAR     80  73  81 N5        29.91F
APPALACHICOLA  CLEAR     78  76  93 CALM      29.91F
$$




USA.gov is the U.S. government's official web portal to all federal, state and local government web resources and services.